Time,TemperatureF,DewpointF,PressureIn,WindDirection,WindDirectionDegrees,WindSpeedMPH,WindSpeedGustMPH,Humidity,HourlyPrecipIn,Conditions,Clouds,dailyrainin,SoftwareType,DateUTC
2013-06-22 00:00:00,84.0,71.4,29.78,SW,225,0.0,17.0,66,0.00,,,-99.99,Weather View 32 v60,2013-06-22 05:00:00,
2013-06-22 00:15:00,84.0,71.4,29.77,SSW,202,0.0,17.0,66,0.00,,,-99.99,Weather View 32 v60,2013-06-22 05:15:00,
2013-06-22 00:30:00,84.0,71.8,29.77,West,270,0.0,17.0,67,0.00,,,-99.99,Weather View 32 v60,2013-06-22 05:30:00,
2013-06-22 00:45:00,83.0,70.4,29.77,NW,315,0.0,17.0,66,0.00,,,-99.99,Weather View 32 v60,2013-06-22 05:45:00,
2013-06-22 01:00:00,83.0,70.9,29.78,SSW,202,0.0,16.0,67,0.00,,,-99.99,Weather View 32 v60,2013-06-22 06:00:00,
2013-06-22 01:05:00,83.0,70.9,29.78,SSW,202,0.0,16.0,67,0.00,,,-99.99,Weather View 32 v60,2013-06-22 06:05:00,
2013-06-22 01:15:00,82.0,70.8,29.79,WSW,247,7.0,16.0,69,0.00,,,-99.99,Weather View 32 v60,2013-06-22 06:15:00,
2013-06-22 01:30:00,82.0,70.8,29.82,WNW,292,2.0,16.0,69,0.00,,,-99.99,Weather View 32 v60,2013-06-22 06:30:00,
2013-06-22 01:45:00,82.0,68.1,29.83,SW,225,6.0,24.0,63,0.00,,,-99.99,Weather View 32 v60,2013-06-22 06:45:00,
2013-06-22 02:00:00,79.0,66.6,29.86,NNW,337,5.0,35.0,66,0.00,,,-99.99,Weather View 32 v60,2013-06-22 07:00:00,
2013-06-22 02:05:00,79.0,66.6,29.86,NNW,337,5.0,35.0,66,0.00,,,-99.99,Weather View 32 v60,2013-06-22 07:05:00,
2013-06-22 02:14:00,75.0,63.7,29.90,West,270,3.0,35.0,68,0.00,,,-99.99,Weather View 32 v60,2013-06-22 07:14:00,
2013-06-22 02:30:00,72.0,62.8,29.93,West,270,0.0,35.0,73,0.00,,,-99.99,Weather View 32 v60,2013-06-22 07:30:00,
2013-06-22 02:44:00,71.0,63.0,29.96,NNW,337,7.0,35.0,76,0.00,,,-99.99,Weather View 32 v60,2013-06-22 07:44:00,
2013-06-22 03:00:00,70.0,63.2,29.96,NW,315,10.0,28.0,79,0.00,,,-99.99,Weather View 32 v60,2013-06-22 08:00:00,
2013-06-22 03:06:00,70.0,63.2,29.96,NW,315,10.0,28.0,79,0.00,,,-99.99,Weather View 32 v60,2013-06-22 08:06:00,
2013-06-22 03:15:00,70.0,63.9,29.97,NNW,337,0.0,28.0,81,0.00,,,-99.99,Weather View 32 v60,2013-06-22 08:15:00,
2013-06-22 03:29:00,69.0,62.6,29.99,NW,315,0.0,25.0,80,0.00,,,-99.99,Weather View 32 v60,2013-06-22 08:29:00,
2013-06-22 03:45:00,69.0,62.6,30.01,WSW,247,1.0,16.0,80,0.00,,,-99.99,Weather View 32 v60,2013-06-22 08:45:00,
2013-06-22 04:00:00,68.0,59.8,29.96,ESE,112,0.0,15.0,75,0.01,,,-99.99,Weather View 32 v60,2013-06-22 09:00:00,
2013-06-22 04:07:00,68.0,59.8,29.96,ESE,112,0.0,15.0,75,0.01,,,-99.99,Weather View 32 v60,2013-06-22 09:07:00,
2013-06-22 04:15:00,68.0,59.0,29.94,ESE,112,7.0,12.0,73,0.01,,,-99.99,Weather View 32 v60,2013-06-22 09:15:00,
2013-06-22 04:30:00,68.0,59.4,29.94,ENE,67,4.0,15.0,74,0.01,,,-99.99,Weather View 32 v60,2013-06-22 09:30:00,
2013-06-22 04:45:00,68.0,60.1,29.96,East,90,2.0,16.0,76,0.01,,,-99.99,Weather View 32 v60,2013-06-22 09:45:00,
2013-06-22 05:00:00,68.0,61.9,29.95,ESE,112,13.0,20.0,81,0.01,,,-99.99,Weather View 32 v60,2013-06-22 10:00:00,
2013-06-22 05:07:00,68.0,61.9,29.95,ESE,112,13.0,20.0,81,0.01,,,-99.99,Weather View 32 v60,2013-06-22 10:07:00,
2013-06-22 05:14:00,68.0,61.9,29.98,East,90,10.0,20.0,81,0.02,,,-99.99,Weather View 32 v60,2013-06-22 10:14:00,
2013-06-22 05:30:00,67.0,60.2,30.00,NNW,337,0.0,20.0,79,0.03,,,-99.99,Weather View 32 v60,2013-06-22 10:30:00,
2013-06-22 05:45:00,66.0,58.2,30.02,NNW,337,0.0,20.0,76,0.03,,,-99.99,Weather View 32 v60,2013-06-22 10:45:00,
2013-06-22 06:00:00,66.0,57.4,30.03,East,90,4.0,19.0,74,0.02,,,-99.99,Weather View 32 v60,2013-06-22 11:00:00,
2013-06-22 06:08:00,66.0,57.4,30.03,East,90,4.0,19.0,74,0.02,,,-99.99,Weather View 32 v60,2013-06-22 11:08:00,
2013-06-22 06:15:00,66.0,55.9,30.01,ESE,112,5.0,19.0,70,0.03,,,-99.99,Weather View 32 v60,2013-06-22 11:15:00,
2013-06-22 06:30:00,65.0,54.9,30.02,ESE,112,4.0,10.0,70,0.07,,,-99.99,Weather View 32 v60,2013-06-22 11:30:00,
2013-06-22 06:45:00,65.0,54.2,30.03,SSE,157,0.0,10.0,68,0.12,,,-99.99,Weather View 32 v60,2013-06-22 11:45:00,
2013-06-22 07:00:00,65.0,53.3,30.04,ENE,67,0.0,10.0,66,0.16,,,-99.99,Weather View 32 v60,2013-06-22 12:00:00,
2013-06-22 07:08:00,65.0,53.3,30.04,ENE,67,0.0,10.0,66,0.16,,,-99.99,Weather View 32 v60,2013-06-22 12:08:00,
2013-06-22 07:14:00,65.0,52.9,30.04,SSE,157,3.0,10.0,65,0.17,,,-99.99,Weather View 32 v60,2013-06-22 12:14:00,
2013-06-22 07:30:00,65.0,52.5,30.03,ENE,67,0.0,8.0,64,0.14,,,-99.99,Weather View 32 v60,2013-06-22 12:30:00,
2013-06-22 07:45:00,65.0,52.5,30.03,WSW,247,0.0,8.0,64,0.11,,,-99.99,Weather View 32 v60,2013-06-22 12:45:00,
2013-06-22 08:00:00,65.0,52.5,30.04,SSW,202,0.0,7.0,64,0.12,,,-99.99,Weather View 32 v60,2013-06-22 13:00:00,
2013-06-22 08:09:00,65.0,52.5,30.04,SSW,202,0.0,7.0,64,0.12,,,-99.99,Weather View 32 v60,2013-06-22 13:09:00,
2013-06-22 08:15:00,65.0,52.1,30.02,NNW,337,0.0,8.0,63,0.13,,,-99.99,Weather View 32 v60,2013-06-22 13:15:00,
2013-06-22 08:30:00,65.0,52.1,29.96,WNW,292,4.0,13.0,63,0.16,,,-99.99,Weather View 32 v60,2013-06-22 13:30:00,
2013-06-22 08:45:00,64.0,50.7,29.93,South,180,0.0,13.0,62,0.16,,,-99.99,Weather View 32 v60,2013-06-22 13:45:00,
2013-06-22 09:00:00,65.0,53.3,29.86,ENE,67,6.0,17.0,66,0.13,,,-99.99,Weather View 32 v60,2013-06-22 14:00:00,
2013-06-22 09:09:00,65.0,53.3,29.86,ENE,67,6.0,17.0,66,0.13,,,-99.99,Weather View 32 v60,2013-06-22 14:09:00,
2013-06-22 09:15:00,65.0,56.5,29.87,SE,135,1.0,23.0,74,0.10,,,-99.99,Weather View 32 v60,2013-06-22 14:15:00,
2013-06-22 09:30:00,66.0,60.0,29.84,ESE,112,5.0,31.0,81,0.05,,,-99.99,Weather View 32 v60,2013-06-22 14:30:00,
2013-06-22 09:44:00,67.0,61.6,29.81,North,360,0.0,31.0,83,0.03,,,-99.99,Weather View 32 v60,2013-06-22 14:44:00,
2013-06-22 10:00:00,68.0,62.3,29.83,SSW,202,3.0,31.0,82,0.01,,,-99.99,Weather View 32 v60,2013-06-22 15:00:00,
2013-06-22 10:10:00,68.0,62.3,29.83,SSW,202,3.0,31.0,82,0.01,,,-99.99,Weather View 32 v60,2013-06-22 15:10:00,
2013-06-22 10:30:00,69.0,62.6,29.88,WNW,292,2.0,19.0,80,0.00,,,-99.99,Weather View 32 v60,2013-06-22 15:30:00,
2013-06-22 10:45:00,69.0,62.9,29.90,East,90,0.0,17.0,81,0.00,,,-99.99,Weather View 32 v60,2013-06-22 15:45:00,
2013-06-22 11:00:00,69.0,62.9,29.90,NNW,337,0.0,15.0,81,0.00,,,-99.99,Weather View 32 v60,2013-06-22 16:00:00,
2013-06-22 11:11:00,69.0,62.9,29.90,NNW,337,0.0,15.0,81,0.00,,,-99.99,Weather View 32 v60,2013-06-22 16:11:00,
2013-06-22 11:30:00,69.0,62.9,29.91,West,270,0.0,10.0,81,0.00,,,-99.99,Weather View 32 v60,2013-06-22 16:30:00,
2013-06-22 11:45:00,69.0,62.9,29.91,West,270,1.0,10.0,81,0.00,,,-99.99,Weather View 32 v60,2013-06-22 16:45:00,
2013-06-22 12:00:00,69.0,63.3,29.93,WSW,247,0.0,10.0,82,0.00,,,-99.99,Weather View 32 v60,2013-06-22 17:00:00,
2013-06-22 12:11:00,69.0,63.3,29.93,WSW,247,0.0,10.0,82,0.00,,,-99.99,Weather View 32 v60,2013-06-22 17:11:00,
2013-06-22 12:30:00,68.0,61.9,29.96,NNW,337,0.0,7.0,81,0.00,,,-99.99,Weather View 32 v60,2013-06-22 17:30:00,
2013-06-22 12:45:00,68.0,61.6,29.95,SE,135,0.0,7.0,80,0.00,,,-99.99,Weather View 32 v60,2013-06-22 17:45:00,
2013-06-22 13:00:00,67.0,59.5,29.95,West,270,0.0,7.0,77,0.00,,,-99.99,Weather View 32 v60,2013-06-22 18:00:00,
2013-06-22 13:12:00,67.0,59.5,29.95,West,270,0.0,7.0,77,0.00,,,-99.99,Weather View 32 v60,2013-06-22 18:12:00,
2013-06-22 13:30:00,67.0,56.5,29.95,West,270,0.0,9.0,69,0.08,,,-99.99,Weather View 32 v60,2013-06-22 18:30:00,
2013-06-22 13:44:00,67.0,55.6,29.95,North,360,0.0,9.0,67,0.09,,,-99.99,Weather View 32 v60,2013-06-22 18:44:00,
2013-06-22 13:59:00,67.0,54.0,29.96,ENE,67,0.0,9.0,63,0.09,,,-99.99,Weather View 32 v60,2013-06-22 18:59:00,
2013-06-22 14:13:00,67.0,54.0,29.96,ENE,67,0.0,9.0,63,0.09,,,-99.99,Weather View 32 v60,2013-06-22 19:13:00,
2013-06-22 14:30:00,70.0,59.3,29.94,East,90,0.0,9.0,69,0.01,,,-99.99,Weather View 32 v60,2013-06-22 19:30:00,
2013-06-22 14:44:00,71.0,61.9,29.93,ENE,67,0.0,9.0,73,0.00,,,-99.99,Weather View 32 v60,2013-06-22 19:44:00,
2013-06-22 15:00:00,71.0,62.6,29.93,NNW,337,0.0,9.0,75,0.00,,,-99.99,Weather View 32 v60,2013-06-22 20:00:00,
2013-06-22 15:13:00,71.0,62.6,29.93,NNW,337,0.0,9.0,75,0.00,,,-99.99,Weather View 32 v60,2013-06-22 20:13:00,
2013-06-22 15:29:00,73.0,67.2,29.91,ESE,112,4.0,7.0,82,0.00,,,-99.99,Weather View 32 v60,2013-06-22 20:29:00,
2013-06-22 15:45:00,74.0,68.1,29.89,East,90,0.0,7.0,82,0.00,,,-99.99,Weather View 32 v60,2013-06-22 20:45:00,
2013-06-22 16:00:00,73.0,67.2,29.90,ENE,67,2.0,11.0,82,0.00,,,-99.99,Weather View 32 v60,2013-06-22 21:00:00,
2013-06-22 16:14:00,73.0,67.2,29.90,ENE,67,2.0,11.0,82,0.00,,,-99.99,Weather View 32 v60,2013-06-22 21:14:00,
2013-06-22 16:30:00,76.0,69.7,29.88,East,90,0.0,11.0,81,0.00,,,-99.99,Weather View 32 v60,2013-06-22 21:30:00,
2013-06-22 16:45:00,75.0,67.6,29.87,ESE,112,7.0,11.0,78,0.00,,,-99.99,Weather View 32 v60,2013-06-22 21:45:00,
2013-06-22 17:00:00,75.0,68.7,29.88,ENE,67,0.0,9.0,81,0.00,,,-99.99,Weather View 32 v60,2013-06-22 22:00:00,
2013-06-22 17:14:00,75.0,68.7,29.88,ENE,67,0.0,9.0,81,0.00,,,-99.99,Weather View 32 v60,2013-06-22 22:14:00,
2013-06-22 17:30:00,74.0,67.8,29.86,ESE,112,2.0,12.0,81,0.00,,,-99.99,Weather View 32 v60,2013-06-22 22:30:00,
2013-06-22 17:45:00,75.0,68.4,29.86,ESE,112,5.0,12.0,80,0.00,,,-99.99,Weather View 32 v60,2013-06-22 22:45:00,
2013-06-22 18:00:00,76.0,69.7,29.85,ESE,112,0.0,12.0,81,0.00,,,-99.99,Weather View 32 v60,2013-06-22 23:00:00,
2013-06-22 18:15:00,76.0,69.7,29.85,East,90,1.0,13.0,81,0.00,,,-99.99,Weather View 32 v60,2013-06-22 23:15:00,
2013-06-22 18:30:00,76.0,69.7,29.85,ESE,112,9.0,15.0,81,0.00,,,-99.99,Weather View 32 v60,2013-06-22 23:30:00,
2013-06-22 18:45:00,75.0,68.4,29.84,East,90,6.0,15.0,80,0.00,,,-99.99,Weather View 32 v60,2013-06-22 23:45:00,
2013-06-22 19:00:00,75.0,68.4,29.84,East,90,6.0,15.0,80,0.00,,,-99.99,Weather View 32 v60,2013-06-23 00:00:00,
2013-06-22 19:15:00,75.0,68.4,29.84,ESE,112,10.0,15.0,80,0.00,,,-99.99,Weather View 32 v60,2013-06-23 00:15:00,
2013-06-22 19:30:00,75.0,68.4,29.83,ESE,112,7.0,15.0,80,0.00,,,-99.99,Weather View 32 v60,2013-06-23 00:30:00,
2013-06-22 19:45:00,74.0,67.8,29.84,ESE,112,4.0,15.0,81,0.00,,,-99.99,Weather View 32 v60,2013-06-23 00:45:00,
2013-06-22 20:00:00,74.0,67.8,29.84,East,90,9.0,15.0,81,0.00,,,-99.99,Weather View 32 v60,2013-06-23 01:00:00,
2013-06-22 20:15:00,74.0,67.8,29.84,East,90,5.0,13.0,81,0.00,,,-99.99,Weather View 32 v60,2013-06-23 01:15:00,
2013-06-22 20:30:00,74.0,67.8,29.84,ESE,112,9.0,12.0,81,0.00,,,-99.99,Weather View 32 v60,2013-06-23 01:30:00,
2013-06-22 20:45:00,74.0,67.8,29.82,ENE,67,7.0,14.0,81,0.00,,,-99.99,Weather View 32 v60,2013-06-23 01:45:00,
2013-06-22 21:00:00,73.0,66.8,29.82,East,90,9.0,15.0,81,0.00,,,-99.99,Weather View 32 v60,2013-06-23 02:00:00,
2013-06-22 21:14:00,73.0,67.2,29.83,East,90,6.0,17.0,82,0.00,,,-99.99,Weather View 32 v60,2013-06-23 02:14:00,
2013-06-22 21:29:00,73.0,67.2,29.83,ENE,67,9.0,17.0,82,0.00,,,-99.99,Weather View 32 v60,2013-06-23 02:29:00,
2013-06-22 21:45:00,73.0,67.2,29.84,East,90,5.0,17.0,82,0.00,,,-99.99,Weather View 32 v60,2013-06-23 02:45:00,
2013-06-22 21:59:00,73.0,67.2,29.83,SE,135,0.0,17.0,82,0.00,,,-99.99,Weather View 32 v60,2013-06-23 02:59:00,
2013-06-22 22:15:00,74.0,67.8,29.83,ESE,112,10.0,16.0,81,0.00,,,-99.99,Weather View 32 v60,2013-06-23 03:15:00,
2013-06-22 22:30:00,74.0,67.8,29.83,ESE,112,5.0,16.0,81,0.00,,,-99.99,Weather View 32 v60,2013-06-23 03:30:00,
2013-06-22 22:44:00,74.0,67.8,29.83,ESE,112,0.0,16.0,81,0.00,,,-99.99,Weather View 32 v60,2013-06-23 03:44:00,
2013-06-22 23:00:00,74.0,67.8,29.81,NNE,22,0.0,13.0,81,0.00,,,-99.99,Weather View 32 v60,2013-06-23 04:00:00,
2013-06-22 23:15:00,76.0,69.0,29.79,ENE,67,0.0,10.0,79,0.00,,,-99.99,Weather View 32 v60,2013-06-23 04:15:00,
2013-06-22 23:18:00,76.0,69.0,29.79,ENE,67,0.0,10.0,79,0.00,,,-99.99,Weather View 32 v60,2013-06-23 04:18:00,
2013-06-22 23:29:00,77.0,68.0,29.78,SW,225,1.0,12.0,74,0.00,,,-99.99,Weather View 32 v60,2013-06-23 04:29:00,
2013-06-22 23:45:00,78.0,68.2,29.76,SW,225,1.0,14.0,72,0.00,,,-99.99,Weather View 32 v60,2013-06-23 04:45:00,